Snowfall_Accumulation
nan nan nan nan nan nan nan 0.0 2.1 0.0 0.0 1.9 0.3 0.3 0.0 nan 0.0 0.0 0.0 0.0 0.0 0.0 0.0 0.0 0.0 0.0 0.0 0.0 0.0 0.0 0.0 0.0 0.0 0.0 0.0 0.0 0.0 0.0 0.0 0.1 0.0 0.1 0.2 0.2
nan nan nan nan nan nan 0.0 0.1 0.0 0.0 0.0 3.1 0.4 0.0 0.0 0.0 0.0 0.0 0.0 0.0 0.0 0.0 0.0 0.0 0.0 0.0 0.0 0.0 0.0 0.0 0.0 0.0 0.0 0.0 0.0 0.0 0.0 0.0 0.0 0.0 0.0 0.0 1.6 0.2
nan nan nan nan nan nan 0.0 0.6 5.8 0.2 0.0 0.0 0.0 0.1 0.1 0.0 0.0 0.0 0.0 0.0 0.0 0.0 0.0 0.0 0.0 0.0 0.0 0.0 0.0 nan nan 0.0 0.0 0.0 0.0 0.0 0.0 0.0 0.0 0.0 0.3 0.0 0.0 0.0
nan nan nan nan nan nan 0.0 0.5 4.7 0.1 2.7 0.3 0.0 0.0 0.0 0.0 0.0 0.0 0.0 0.0 0.0 0.0 0.0 0.0 0.0 0.0 0.0 0.0 nan 0.0 0.0 0.0 0.0 0.0 0.0 0.0 0.0 0.0 0.0 0.0 0.0 0.1 0.0 0.0
nan nan nan nan nan nan 0.0 7.9 0.7 0.0 0.0 0.0 0.0 0.0 0.1 0.0 0.0 0.0 0.0 0.0 0.0 0.0 0.0 0.0 0.0 0.0 0.0 0.0 0.0 0.0 0.0 0.2 0.0 0.0 0.0 0.0 0.0 0.0 0.0 0.0 0.0 0.0 0.0 0.0
nan nan nan nan nan nan 0.0 0.0 0.0 0.0 nan 0.1 0.4 0.0 0.0 0.0 0.0 0.0 0.0 0.0 0.0 0.0 0.0 0.0 0.0 0.0 0.0 0.0 0.0 0.0 0.0 0.1 0.1 0.0 0.0 0.0 0.4 0.0 0.0 0.0 0.0 0.0 0.0 0.0
nan nan nan nan nan nan 0.0 0.0 0.0 0.1 1.2 0.1 0.0 0.0 0.0 0.0 0.0 0.0 0.0 0.0 0.0 0.0 0.0 0.0 0.0 0.0 0.0 0.0 0.0 0.0 0.0 0.3 0.2 0.5 0.3 1.9 0.0 0.0 0.0 0.0 0.0 0.0 0.0 0.0
nan nan nan nan nan nan 0.0 0.0 0.0 0.0 2.5 0.0 0.0 0.0 0.0 0.0 0.0 0.0 0.0 0.0 0.0 0.0 0.0 0.1 0.0 0.2 0.0 0.0 0.0 0.0 0.0 0.0 2.0 2.6 0.3 0.0 0.0 0.0 0.0 0.0 0.0 0.0 0.0 0.0
nan nan nan nan nan nan 0.0 0.0 0.0 0.0 0.2 0.3 0.0 0.0 0.0 0.0 0.0 0.0 0.0 0.0 0.0 0.0 0.0 0.2 0.8 0.6 0.0 0.1 0.0 0.0 0.0 0.0 0.2 1.6 0.7 2.4 0.0 0.0 0.0 0.0 0.0 0.0 0.0 0.0
nan nan nan nan nan nan 0.0 0.0 0.0 0.0 0.6 0.0 0.0 0.0 0.1 0.0 0.0 0.0 0.0 0.0 0.0 0.0 0.5 2.0 1.0 0.7 0.0 0.3 0.1 0.4 0.6 0.6 0.9 0.8 1.4 0.3 0.0 0.0 0.0 0.4 0.0 0.0 0.0 0.0
nan nan nan nan nan nan 0.0 0.0 0.0 0.0 0.5 0.0 0.0 0.0 0.0 0.0 0.0 0.1 0.0 0.1 0.1 0.2 0.3 0.5 0.4 1.4 0.2 0.1 0.0 0.0 0.2 1.1 2.1 0.9 0.9 1.5 0.0 0.0 0.0 0.0 0.0 0.0 0.0 0.0
nan nan nan nan nan nan nan 0.0 0.0 0.0 0.0 0.0 0.0 0.0 0.0 0.0 0.0 0.0 0.0 0.0 0.0 0.0 0.0 0.3 0.3 1.3 2.3 0.0 0.6 0.0 0.4 0.1 0.2 0.1 0.3 0.0 0.0 0.0 0.0 0.0 0.0 0.0 0.0 0.0
nan nan nan nan nan nan nan 0.0 0.0 0.0 0.0 0.0 0.0 0.0 0.0 0.0 0.0 0.0 0.0 0.0 0.0 0.0 0.0 0.0 0.2 0.2 0.1 1.2 0.2 0.1 0.0 0.0 0.1 0.0 0.0 0.0 0.0 0.0 0.0 0.0 0.0 0.0 0.0 0.0
nan nan nan nan nan nan nan 0.0 0.0 0.0 0.0 1.9 0.1 0.0 0.0 0.0 0.0 0.0 0.0 0.0 0.0 0.0 0.0 0.2 0.4 1.0 0.0 0.3 0.1 0.1 0.0 0.0 0.0 0.0 0.0 0.0 0.0 0.0 0.0 0.0 0.0 0.0 0.0 0.0
nan nan nan nan nan nan nan 0.0 0.0 0.0 0.1 0.7 0.1 0.0 0.0 0.0 0.0 0.0 0.0 0.0 0.0 0.0 0.1 1.3 0.5 0.0 0.2 0.2 0.1 0.2 0.0 0.0 0.2 0.1 0.0 0.0 0.0 0.0 0.0 0.0 0.0 0.0 0.0 0.0
nan nan nan nan nan nan 0.0 0.0 0.0 0.0 0.0 0.3 0.9 0.0 0.0 0.0 0.0 0.0 0.0 0.0 0.0 0.0 0.0 0.5 0.1 0.0 0.0 1.8 0.2 0.0 0.0 0.0 0.0 0.0 0.0 0.0 0.0 0.0 0.0 0.0 0.0 0.0 0.0 0.0
nan nan nan nan nan 0.0 0.0 0.0 0.0 nan 0.0 0.5 2.0 0.3 0.0 0.0 0.0 0.0 0.0 0.0 0.0 0.0 0.0 0.2 0.1 0.1 0.0 0.8 0.8 0.0 0.0 0.0 0.0 0.0 0.0 0.0 0.0 0.0 0.0 0.0 0.0 0.0 0.0 0.0
nan nan nan nan nan nan 0.0 0.0 nan nan 0.0 0.0 3.2 1.5 0.3 0.0 0.2 0.4 0.0 0.1 0.1 0.0 0.0 0.2 0.2 0.1 0.3 0.6 0.0 0.0 0.0 0.0 0.0 0.0 0.0 0.0 0.0 0.0 0.0 0.0 0.0 0.0 0.0 0.0
nan nan nan 0.0 0.0 0.1 0.0 nan nan 0.0 0.0 1.0 3.6 1.3 3.8 0.0 0.1 0.3 0.2 0.0 0.6 0.0 0.6 0.3 0.1 0.3 1.8 0.8 0.1 0.1 0.0 0.0 0.0 0.0 0.0 0.0 0.0 0.0 0.0 0.0 0.0 0.0 0.0 0.0
nan 0.0 0.0 0.7 0.1 nan nan 0.0 0.2 0.1 0.1 0.2 1.3 0.1 1.0 0.0 0.4 0.6 0.5 0.4 0.7 1.2 0.7 0.0 0.9 2.0 0.6 0.4 0.2 0.1 0.3 0.1 0.0 0.0 0.0 0.0 0.0 0.0 0.0 0.0 0.0 0.0 0.1 0.0
0.0 0.2 1.1 0.0 nan 0.0 0.1 0.9 0.9 0.2 0.8 0.1 0.2 0.1 0.4 0.1 1.0 1.3 0.5 2.3 1.2 2.6 0.5 1.1 1.5 1.3 1.2 0.8 0.9 0.8 0.5 0.3 0.4 0.2 0.1 0.0 0.0 0.0 0.0 0.0 0.0 0.0 0.0 0.0
0.0 0.0 0.0 0.0 0.0 0.4 2.2 3.2 1.6 0.4 0.3 0.4 0.6 0.3 0.1 0.5 0.3 0.3 1.4 2.0 3.1 3.7 0.3 4.2 3.2 1.2 0.1 0.0 0.1 0.2 0.5 0.8 0.8 0.9 1.1 0.7 0.4 0.1 0.0 0.0 0.0 0.1 0.1 2.0
0.0 0.1 0.1 0.2 3.4 32.2 6.9 4.9 2.7 5.4 1.3 1.6 1.2 4.7 0.4 0.4 0.1 1.4 1.2 6.9 6.0 1.4 8.9 4.0 3.0 0.5 0.2 0.2 0.1 0.1 0.1 0.1 0.4 0.8 0.6 1.2 1.1 0.5 0.5 1.4 2.3 3.7 4.9 4.9
0.3 1.3 36.4 10.1 9.0 4.9 5.2 2.6 2.5 2.5 2.0 1.3 0.6 1.4 0.9 1.5 2.2 2.9 8.0 2.8 2.2 8.9 9.6 5.5 2.3 1.5 1.2 0.7 0.8 0.5 1.4 1.5 1.7 3.0 3.3 3.5 3.8 6.1 7.0 8.3 9.4 7.8 6.3 8.3
2.5 2.3 26.7 8.0 4.8 4.0 4.1 3.4 2.4 1.5 1.1 1.0 1.1 1.1 0.2 3.6 6.9 4.2 3.9 8.0 8.2 4.6 5.2 4.8 3.1 1.9 1.2 1.5 1.5 1.5 1.8 3.3 3.6 3.9 4.5 6.3 5.4 3.9 5.2 5.7 5.5 3.7 6.5 6.9
1.8 2.1 5.5 3.9 7.3 13.0 11.1 7.5 6.3 1.1 1.4 0.8 1.7 4.0 5.7 7.1 4.8 3.6 6.3 2.6 3.9 6.5 4.0 2.9 1.9 2.3 2.1 2.1 2.4 3.2 3.4 3.8 4.0 3.8 3.5 3.9 4.4 3.8 4.1 3.5 3.6 7.7 6.2 9.9
1.5 12.5 5.5 7.9 7.6 10.9 8.8 5.7 3.2 1.0 4.0 9.3 3.0 4.9 4.6 2.0 4.6 2.7 2.5 10.0 7.2 5.6 4.1 3.6 2.2 2.4 3.2 4.0 3.9 5.5 4.7 4.2 3.7 3.5 2.9 3.2 3.0 2.5 1.4 2.2 3.8 2.0 2.2 7.7
Water_Equivalent
nan nan nan nan nan nan nan 0.00 0.60 0.00 0.00 0.44 0.08 0.05 0.00 nan 0.00 0.00 0.00 0.00 0.00 0.00 0.00 0.00 0.00 0.00 0.00 0.00 0.00 0.00 0.00 0.00 0.01 0.00 0.00 0.00 0.00 0.00 0.00 0.04 0.00 0.02 0.06 0.05
nan nan nan nan nan nan 0.00 0.02 0.00 0.00 0.00 0.53 0.08 0.00 0.00 0.00 0.00 0.00 0.00 0.00 0.00 0.00 0.00 0.00 0.00 0.00 0.00 0.00 0.00 0.00 0.00 0.00 0.01 0.01 0.00 0.00 0.00 0.00 0.00 0.00 0.01 0.00 0.41 0.04
nan nan nan nan nan nan 0.00 0.23 1.16 0.04 0.00 0.00 0.00 0.02 0.01 0.00 0.00 0.00 0.00 0.00 0.00 0.00 0.00 0.00 0.00 0.00 0.00 0.00 0.00 nan nan 0.00 0.00 0.00 0.00 0.00 0.00 0.00 0.00 0.00 0.08 0.01 0.00 0.00
nan nan nan nan nan nan 0.00 0.19 0.80 0.03 0.61 0.09 0.00 0.00 0.00 0.00 0.00 0.00 0.00 0.00 0.00 0.00 0.00 0.00 0.00 0.00 0.00 0.00 nan 0.00 0.00 0.00 0.00 0.00 0.00 0.00 0.00 0.00 0.00 0.00 0.00 0.02 0.00 0.00
nan nan nan nan nan nan 0.00 2.36 0.12 0.00 0.00 0.00 0.01 0.00 0.01 0.00 0.00 0.00 0.00 0.00 0.00 0.00 0.00 0.00 0.00 0.00 0.00 0.00 0.00 0.00 0.00 0.07 0.00 0.00 0.00 0.00 0.00 0.00 0.00 0.00 0.00 0.00 0.00 0.00
nan nan nan nan nan nan 0.00 0.00 0.00 0.00 nan 0.01 0.07 0.01 0.00 0.00 0.00 0.00 0.00 0.00 0.00 0.00 0.00 0.00 0.00 0.00 0.00 0.00 0.00 0.00 0.00 0.04 0.03 0.00 0.00 0.00 0.10 0.00 0.00 0.00 0.00 0.00 0.00 0.00
nan nan nan nan nan nan 0.00 0.00 0.00 0.01 0.21 0.01 0.00 0.00 0.00 0.00 0.00 0.00 0.00 0.00 0.00 0.00 0.00 0.00 0.00 0.00 0.00 0.00 0.00 0.00 0.00 0.07 0.06 0.17 0.09 0.37 0.01 0.00 0.00 0.00 0.00 0.00 0.00 0.00
nan nan nan nan nan nan 0.00 0.00 0.00 0.00 0.63 0.00 0.00 0.00 0.00 0.00 0.00 0.00 0.00 0.00 0.00 0.00 0.00 0.02 0.00 0.07 0.01 0.00 0.00 0.00 0.00 0.00 0.40 0.60 0.07 0.00 0.00 0.00 0.00 0.00 0.00 0.00 0.00 0.00
nan nan nan nan nan nan 0.00 0.00 0.00 0.00 0.04 0.05 0.00 0.00 0.00 0.00 0.00 0.00 0.00 0.00 0.00 0.00 0.02 0.07 0.13 0.17 0.00 0.02 0.00 0.00 0.00 0.00 0.07 0.31 0.12 0.55 0.00 0.00 0.00 0.00 0.01 0.00 0.00 0.00
nan nan nan nan nan nan 0.00 0.00 0.00 0.00 0.13 0.00 0.00 0.01 0.01 0.00 0.00 0.00 0.00 0.00 0.00 0.00 0.16 0.63 0.27 0.17 0.00 0.07 0.02 0.09 0.15 0.14 0.23 0.19 0.31 0.10 0.00 0.00 0.00 0.11 0.01 0.00 0.00 0.00
nan nan nan nan nan nan 0.00 0.00 0.00 0.00 0.10 0.00 0.00 0.00 0.00 0.00 0.00 0.02 0.00 0.04 0.03 0.06 0.10 0.17 0.13 0.44 0.07 0.03 0.00 0.00 0.04 0.24 0.56 0.22 0.24 0.37 0.00 0.00 0.01 0.01 0.00 0.00 0.00 0.00
nan nan nan nan nan nan nan 0.00 0.00 0.00 0.00 0.00 0.00 0.00 0.00 0.00 0.00 0.00 0.00 0.00 0.00 0.00 0.01 0.12 0.12 0.44 0.85 0.01 0.16 0.00 0.11 0.02 0.07 0.01 0.08 0.00 0.00 0.00 0.00 0.00 0.00 0.00 0.00 0.00
nan nan nan nan nan nan nan 0.00 0.00 0.00 0.00 0.00 0.00 0.00 0.00 0.00 0.00 0.00 0.00 0.00 0.00 0.00 0.00 0.00 0.07 0.06 0.04 0.40 0.08 0.02 0.00 0.00 0.03 0.01 0.00 0.00 0.00 0.00 0.00 0.00 0.00 0.00 0.00 0.00
nan nan nan nan nan nan nan 0.00 0.00 0.00 0.00 0.52 0.02 0.00 0.00 0.00 0.00 0.00 0.00 0.00 0.00 0.00 0.00 0.08 0.16 0.35 0.00 0.12 0.05 0.04 0.00 0.00 0.00 0.00 0.00 0.00 0.00 0.00 0.00 0.00 0.00 0.00 0.00 0.00
nan nan nan nan nan nan nan 0.00 0.00 0.00 0.02 0.21 0.04 0.00 0.00 0.00 0.00 0.00 0.00 0.00 0.00 0.00 0.06 0.52 0.19 0.01 0.08 0.07 0.05 0.07 0.00 0.00 0.06 0.05 0.00 0.00 0.00 0.00 0.00 0.00 0.00 0.00 0.00 0.00
nan nan nan nan nan nan 0.00 0.00 0.00 0.00 0.00 0.11 0.28 0.00 0.00 0.00 0.00 0.00 0.00 0.00 0.00 0.00 0.01 0.18 0.02 0.00 0.01 0.71 0.09 0.00 0.00 0.00 0.00 0.00 0.00 0.00 0.00 0.00 0.00 0.00 0.00 0.00 0.00 0.00
nan nan nan nan nan 0.00 0.00 0.01 0.00 nan 0.00 0.19 0.49 0.10 0.00 0.00 0.00 0.00 0.00 0.00 0.00 0.00 0.01 0.09 0.03 0.02 0.00 0.27 0.21 0.00 0.00 0.00 0.00 0.00 0.00 0.00 0.00 0.00 0.00 0.00 0.00 0.00 0.00 0.00
nan nan nan nan nan nan 0.00 0.00 nan nan 0.00 0.02 0.77 0.43 0.11 0.00 0.07 0.14 0.00 0.03 0.03 0.01 0.00 0.09 0.09 0.03 0.11 0.18 0.00 0.00 0.00 0.00 0.00 0.00 0.00 0.00 0.00 0.00 0.00 0.00 0.00 0.00 0.00 0.00
nan nan nan 0.00 0.00 0.06 0.00 nan nan 0.00 0.01 0.25 1.25 0.46 1.13 0.00 0.02 0.11 0.07 0.01 0.24 0.01 0.23 0.11 0.05 0.13 0.45 0.18 0.05 0.02 0.00 0.00 0.00 0.00 0.00 0.00 0.00 0.00 0.00 0.00 0.00 0.00 0.01 0.00
nan 0.00 0.01 0.22 0.03 nan nan 0.00 0.07 0.04 0.04 0.06 0.41 0.04 0.36 0.01 0.15 0.23 0.19 0.17 0.29 0.44 0.26 0.00 0.33 0.56 0.16 0.10 0.05 0.03 0.08 0.03 0.00 0.00 0.00 0.00 0.00 0.00 0.00 0.00 0.00 0.00 0.02 0.01
0.00 0.07 0.31 0.00 nan 0.00 0.03 0.24 0.24 0.08 0.25 0.04 0.07 0.06 0.15 0.03 0.41 0.49 0.19 0.91 0.47 0.78 0.16 0.39 0.40 0.27 0.19 0.16 0.17 0.18 0.12 0.07 0.09 0.05 0.02 0.00 0.00 0.00 0.01 0.00 0.00 0.00 0.00 0.00
0.00 0.01 0.00 0.00 0.01 0.14 0.65 1.06 0.54 0.15 0.10 0.14 0.23 0.14 0.04 0.19 0.12 0.13 0.45 0.55 0.89 0.90 0.09 1.31 0.72 0.21 0.01 0.00 0.01 0.03 0.14 0.16 0.11 0.13 0.17 0.14 0.05 0.01 0.00 0.00 0.00 0.01 0.01 0.40
0.00 0.03 0.04 0.09 1.20 4.77 1.86 1.20 0.79 1.68 0.39 0.64 0.48 1.88 0.17 0.17 0.05 0.58 0.44 1.85 1.39 0.31 2.22 0.63 0.48 0.07 0.02 0.03 0.02 0.02 0.02 0.02 0.06 0.10 0.07 0.16 0.16 0.07 0.09 0.22 0.33 0.57 0.64 0.66
0.12 0.51 4.77 2.47 2.30 1.07 1.01 0.56 0.68 0.80 0.75 0.49 0.25 0.55 0.36 0.59 0.76 0.90 2.02 0.82 0.59 1.84 2.05 0.88 0.36 0.20 0.16 0.10 0.11 0.08 0.20 0.27 0.27 0.47 0.54 0.55 0.56 0.83 1.09 1.34 1.46 1.08 0.74 0.96
0.58 0.56 3.39 1.63 1.02 0.95 1.10 1.09 0.81 0.47 0.34 0.34 0.44 0.41 0.08 1.11 1.90 1.06 0.89 1.80 1.73 0.87 0.95 0.73 0.53 0.26 0.16 0.21 0.21 0.22 0.28 0.55 0.56 0.54 0.59 0.89 0.72 0.49 0.61 0.71 0.66 0.45 0.89 0.91
0.40 0.45 1.15 0.96 1.81 3.05 3.15 2.27 1.98 0.30 0.43 0.31 0.44 0.92 1.34 1.56 1.15 0.81 1.17 0.55 0.68 1.13 0.72 0.50 0.30 0.31 0.30 0.30 0.33 0.45 0.50 0.53 0.53 0.49 0.44 0.48 0.56 0.51 0.45 0.40 0.43 1.13 0.96 1.47
0.34 2.37 1.20 1.64 1.66 2.22 2.03 1.42 0.72 0.22 1.09 2.61 0.72 0.99 0.73 0.43 0.90 0.44 0.45 1.80 1.11 0.87 0.58 0.48 0.29 0.32 0.42 0.53 0.53 0.81 0.64 0.54 0.46 0.42 0.35 0.37 0.35 0.29 0.16 0.25 0.38 0.21 0.23 1.17
SL_Ratio
nan nan nan nan nan nan nan nan 3.5 nan nan 4.4 4.0 5.5 nan nan nan nan nan nan nan nan nan nan nan nan nan nan nan nan nan nan 2.7 nan nan nan nan nan nan 3.0 nan 3.0 3.3 3.9
nan nan nan nan nan nan nan 3.1 nan nan nan 5.9 5.3 4.4 nan nan nan nan nan nan nan nan nan 6.7 nan nan nan nan nan nan nan nan 3.3 3.1 nan nan nan nan nan nan 2.9 nan 3.9 3.8
nan nan nan nan nan nan nan 2.8 5.0 4.6 nan nan 10.0 5.3 6.3 6.0 nan nan nan nan nan nan nan nan nan nan nan nan nan nan nan nan nan 4.0 nan nan nan nan nan nan 3.3 3.0 2.2 nan
nan nan nan nan nan nan nan 2.5 5.8 4.0 4.4 3.3 nan nan nan 7.5 nan nan nan nan nan nan 10.0 nan nan nan nan nan nan nan nan 3.8 nan nan nan nan nan nan nan nan nan 3.2 nan nan
nan nan nan nan nan nan nan 3.3 5.5 nan nan nan 3.5 nan 5.8 nan nan nan nan nan nan nan nan nan nan nan nan nan nan nan nan 3.1 nan nan nan nan nan nan nan nan nan nan nan nan
nan nan nan nan nan nan 5.0 nan nan nan nan 5.1 5.8 4.3 nan 5.6 nan nan nan nan nan nan nan nan nan nan nan nan nan nan nan 3.3 3.3 nan nan nan 4.4 nan nan nan nan nan nan nan
nan nan nan nan nan nan nan nan nan 5.5 6.0 5.3 6.7 nan nan nan nan nan nan nan nan nan nan nan nan nan nan nan nan nan 2.5 4.6 3.5 3.3 3.6 5.1 4.6 nan nan nan nan nan nan nan
nan nan nan nan nan nan nan nan nan 3.8 3.9 5.5 5.0 10.0 nan nan nan nan nan nan nan nan nan 2.5 0.0 2.8 2.9 3.0 nan nan nan 1.7 5.1 4.4 3.4 6.7 nan nan nan nan nan nan nan nan
nan nan nan nan nan nan nan nan nan nan 3.8 5.7 nan nan nan 6.0 nan nan nan nan nan nan 2.5 2.6 6.5 3.7 6.7 3.5 5.0 nan nan nan 2.8 5.0 5.9 4.3 nan nan nan nan 3.2 nan nan nan
nan nan nan nan nan nan nan nan nan 2.0 4.6 nan nan 6.1 5.9 nan nan nan nan nan nan nan 3.3 3.2 3.9 3.9 nan 4.0 5.4 4.7 3.8 3.8 4.0 3.9 4.5 3.6 nan nan nan 3.7 3.2 nan nan nan
nan nan nan nan nan nan nan nan nan 4.0 4.8 nan nan nan nan nan nan 2.5 nan 3.2 2.5 2.5 2.8 3.1 3.4 3.2 2.9 3.2 5.0 5.0 5.1 4.5 3.7 4.1 3.9 4.1 nan nan 3.7 2.7 nan nan nan nan
nan nan nan nan nan nan nan nan nan nan nan 5.7 nan nan nan nan nan nan nan 5.0 nan nan 2.5 2.5 2.6 2.9 2.7 3.0 3.5 nan 3.4 3.2 3.3 3.6 3.6 nan nan nan nan nan nan nan nan nan
nan nan nan nan nan nan nan nan nan nan 2.0 5.0 6.0 nan nan nan nan nan nan 2.3 nan nan nan nan 2.5 3.2 2.5 2.9 2.9 2.7 nan nan 2.5 3.2 nan nan nan nan nan nan nan nan nan nan
nan nan nan nan nan nan nan nan nan nan 0.0 3.6 2.8 nan nan nan nan nan nan nan nan nan nan 2.5 2.5 2.8 nan 2.8 2.5 2.5 nan nan nan nan nan nan nan nan nan nan nan nan nan nan
nan nan nan nan nan nan nan nan nan nan 2.5 3.6 2.5 nan nan nan nan nan nan nan nan nan 2.6 2.5 2.5 2.7 2.8 2.5 2.5 2.5 nan nan 2.5 2.5 nan nan nan nan nan nan nan nan nan nan
nan nan nan nan nan nan nan nan nan nan nan 2.7 3.4 5.0 nan nan nan nan nan nan nan nan 2.5 2.6 2.5 nan 2.6 2.5 2.5 nan nan nan nan nan nan nan nan nan nan nan nan nan nan nan
nan nan nan nan nan nan nan 4.4 nan nan nan 2.7 4.1 2.7 nan nan nan nan nan nan nan nan 2.5 2.5 2.5 2.5 1.7 2.8 4.1 nan nan nan nan nan nan nan nan nan nan nan nan nan nan nan
nan nan nan nan nan nan nan nan nan nan nan 2.5 4.1 3.4 2.5 nan 2.5 2.5 nan 2.5 2.5 2.5 nan 2.8 2.5 2.5 2.5 3.1 0.0 nan nan nan nan nan nan nan nan nan nan nan nan nan nan nan
nan nan nan nan nan 2.5 nan nan nan nan 3.9 4.0 2.9 2.9 3.4 nan 2.5 2.5 2.5 2.4 2.6 2.5 2.5 2.5 2.5 2.6 4.0 4.4 2.9 3.2 nan nan nan nan nan nan nan nan nan nan nan 5.0 7.1 8.3
nan nan 3.3 3.2 2.5 nan nan 2.0 2.6 2.5 2.5 3.5 3.2 2.6 2.7 2.5 2.5 2.5 2.6 2.6 2.6 2.7 2.5 2.7 2.6 3.5 4.0 3.6 3.9 3.7 3.4 3.3 nan nan nan nan nan nan 6.7 7.3 7.8 6.7 7.3 7.8
0.0 2.6 3.6 nan nan nan 2.5 3.9 3.9 3.1 3.2 2.6 2.5 2.5 2.7 2.6 2.5 2.6 2.5 2.6 2.5 3.3 3.0 2.9 3.6 5.0 6.1 4.8 5.0 4.6 4.4 4.7 4.2 4.2 4.9 5.0 nan 6.7 7.5 8.2 5.0 0.0 10.0 10.0
nan 2.4 nan 2.0 6.1 2.8 3.4 3.0 2.9 2.8 3.1 2.8 2.5 2.5 2.5 2.5 2.5 2.5 3.2 3.5 3.5 4.1 3.4 3.2 4.4 5.7 7.4 7.8 7.4 5.2 3.2 5.0 7.4 6.9 6.2 5.1 7.0 7.9 8.3 8.8 9.3 6.9 6.0 4.9
nan 2.5 2.5 2.5 2.8 6.7 3.7 4.1 3.5 3.2 3.2 2.5 2.5 2.5 2.5 2.5 2.5 2.5 2.7 3.7 4.3 4.4 4.0 6.4 6.3 7.3 7.1 7.1 7.3 8.0 7.7 7.6 6.3 7.9 8.1 7.8 7.0 6.3 5.5 6.6 6.9 6.5 7.6 7.3
2.7 2.6 7.6 4.1 3.9 4.6 5.1 4.6 3.8 3.2 2.7 2.7 2.5 2.5 2.5 2.5 2.8 3.2 4.0 3.4 3.8 4.9 4.7 6.3 6.5 7.3 7.6 7.0 7.0 6.6 7.2 5.7 6.1 6.4 6.1 6.5 6.8 7.3 6.4 6.2 6.4 7.2 8.5 8.6
4.4 4.0 7.9 4.9 4.7 4.2 3.8 3.1 2.9 3.2 3.2 2.9 2.6 2.6 2.5 3.2 3.6 4.0 4.4 4.5 4.7 5.3 5.5 6.5 5.8 7.3 7.4 7.3 7.0 6.9 6.5 6.1 6.5 7.1 7.6 7.1 7.4 7.9 8.4 8.0 8.3 8.4 7.3 7.6
4.6 4.8 4.7 4.1 4.1 4.3 3.5 3.3 3.2 3.5 3.2 2.7 3.8 4.3 4.2 4.5 4.1 4.5 5.4 4.7 5.8 5.8 5.5 5.8 6.4 7.4 7.0 7.0 7.1 7.0 6.8 7.2 7.6 7.8 8.0 8.0 7.7 7.5 9.2 8.7 8.3 6.8 6.4 6.7
4.4 5.3 4.6 4.8 4.6 4.9 4.3 4.0 4.4 4.7 3.7 3.6 4.1 4.9 6.3 4.7 5.0 6.2 5.7 5.6 6.5 6.4 7.1 7.4 7.5 7.4 7.5 7.5 7.3 6.8 7.4 7.7 8.1 8.3 8.3 8.7 8.7 8.5 8.6 8.7 10.0 9.7 9.6 6.6